Flag for Austria Weather past 2 weeks in Hard, Vorarlberg, Austria

Now
59 °F

Light rain. Passing clouds.


Feels Like: 58 °F
Forecast: 59 / 69 °F
Wind: 7 mph from Southwest

Location: Saint Gallen-Altenrhein

Current Time: Sep 2, 2015 at 1:24:18 AM

Latest Report: Sep 2, 2015 at 12:50 AM


Visibility: 3 mi

Pressure: 30.09 "Hg

Humidity: 88%

Dew point: 55 °F

Location of HardLocation

Historic Weather in Hard — Graph

°F

Hard temperature yesterday

Maximum temperature yesterday: 79 °F (at 12:50 PM)
Minimum temperature yesterday: 61 °F (at 8:20 PM)
Average temperature yesterday: 68 °F

Past Weeks' High & Low Weather Summary

 TemperatureHumidityPressure
High88 °F (Aug 30, 5:20 PM)100% (Aug 19, 2:50 AM)30.27 "Hg (Aug 19, 2:50 AM)
Low52 °F (Aug 22, 4:20 AM)33% (Aug 30, 4:50 PM)29.71 "Hg (Aug 24, 7:50 AM)
Average66 °F76%30.05 "Hg
* Reported Aug 17 11:20 PM — Sep 1 11:20 PM, Hard, Weather by CustomWeather, © 2015

Note: Actual official high and low records may vary slightly from our data, if they occured in-between our weather recording intervals... More about our weather records

Advertising

Hard weather history for previous 24 hours

 ConditionsComfort  
Time TempWeatherWind HumidityBarometerVisibility
11:20 PM
Tue, Sep 1
61 °FLight rain. Partly cloudy.5 mph94%30.07 "Hg6 mi
10:50 PM61 °FSprinkles. Passing clouds.5 mph94%30.07 "Hg6 mi
10:20 PM63 °FSprinkles. Overcast.6 mph88%30.07 "HgN/A
9:50 PM61 °FPartly cloudy.5 mph94%30.07 "HgN/A
9:20 PM61 °FLight rain. Passing clouds.2 mph88%30.07 "HgN/A
8:50 PM61 °FRain. Partly sunny.6 mph88%30.07 "Hg6 mi
8:20 PM61 °FRain showers. Partly sunny.5 mph94%30.04 "HgN/A
7:50 PM63 °FRain showers. Partly sunny.6 mph88%30.01 "HgN/A
7:20 PM64 °FSprinkles. Broken clouds.2 mph94%29.98 "HgN/A
6:50 PM64 °FSprinkles. Broken clouds.3 mph88%29.98 "HgN/A
6:20 PM64 °FRain showers. Broken clouds.7 mph88%29.98 "HgN/A
5:50 PM64 °FSprinkles. Partly sunny.5 mph88%29.98 "HgN/A
5:20 PM63 °FSprinkles. Overcast.5 mph94%29.98 "HgN/A
4:50 PM66 °FLight rain. Overcast.7 mph78%29.98 "HgN/A
4:20 PM66 °FLight rain. Broken clouds.6 mph83%29.95 "Hg6 mi
3:50 PM70 °FRain showers. Partly sunny.15 mph64%29.95 "Hg5 mi
3:20 PM73 °FBroken clouds.20 mph57%29.92 "HgN/A
2:50 PM77 °FBroken clouds.17 mph47%29.92 "HgN/A
2:20 PM79 °FSunny.18 mph48%29.92 "Hg10 mi
1:50 PM79 °FSunny.20 mph54%29.92 "Hg10 mi
1:20 PM77 °FSunny.16 mph51%29.89 "Hg10 mi
12:50 PM79 °FSunny.21 mph54%29.89 "Hg10 mi
12:20 PM75 °FSunny.10 mph69%29.89 "Hg10 mi
11:50 AM75 °FSunny.12 mph69%29.89 "Hg10 mi
11:20 AM73 °FSunny.12 mph69%29.89 "Hg10 mi
10:50 AM73 °FSunny.12 mph69%29.86 "Hg10 mi
10:20 AM72 °FPassing clouds.3 mph73%29.86 "HgN/A
9:50 AM72 °FPassing clouds.3 mph73%29.86 "HgN/A
9:20 AM72 °FSunny.2 mph69%29.86 "Hg10 mi
8:50 AM70 °FSunny.1 mph73%29.86 "Hg10 mi
8:20 AM68 °FSunny.3 mph69%29.86 "Hg10 mi
7:50 AM66 °FSunny.1 mph73%29.89 "Hg10 mi
7:20 AM64 °FPassing clouds.3 mph73%29.89 "HgN/A
6:50 AM66 °FPassing clouds.3 mph78%29.86 "HgN/A
5:20 AM64 °FClear.5 mph88%29.89 "Hg10 mi
4:50 AM64 °FClear.2 mph83%29.92 "Hg10 mi
4:20 AM68 °FClear.6 mph73%29.92 "Hg10 mi
3:50 AM70 °FMild.7 mph78%29.92 "HgN/A
3:20 AM70 °FClear.2 mph69%29.92 "Hg10 mi
2:50 AM66 °FClear.1 mph88%29.92 "HgN/A
2:20 AM66 °FClear.2 mph88%29.92 "Hg10 mi
1:50 AM70 °FClear.2 mph73%29.95 "Hg10 mi
1:20 AM72 °FClear.3 mph73%29.95 "HgN/A
Weather by CustomWeather, © 2015

See weather overviewHow to use our weather pages